Location: Newark
(13.8117°N, 3.6025°W)
Time: 05:33:55
(UTC+00:00)

Vanguard 2 - Pass Details

Date: 03 September 2019
Orbit: 554 x 2937 km, 32.9° (Epoch: 17 September)

Event Time Altitude Azimuth Distance (km) Brightness Sun altitude
Rises 19:23:11 0° 258° (WSW) 5,325 13.1 -14.9°
Reaches altitude 10° 19:28:55 10° 236° (SW) 4,806 12.2 -16.2°
Maximum altitude 19:35:49 15° 206° (SSW) 4,847 11.7 -17.8°
Drops below altitude 10° 19:43:47 10° 177° (S) 5,614 11.7 -19.7°
Sets 19:51:54 0° 157° (SSE) 6,781 12.0 -21.7°
